Location: Le Rouget
(44.8538°N, 2.2328°E)
Time: 05:47:00
(UTC+00:00)

Cosmos 1898 Rocket - Pass Details

Date: 15 May 2026
Orbit: 750 x 778 km, 74.0° (Epoch: 6 June)

Event Time Altitude Azimuth Distance (km) Brightness Sun altitude
Rises 22:56:43 0° 338° (NNW) 3,216 8.1 -25.1°
Reaches altitude 10° 22:59:05 10° 338° (NNW) 2,290 7.0 -25.2°
Maximum altitude 23:04:17 84° 250° (WSW) 769 3.4 -25.3°
Enters shadow 23:04:34 79° 194° (SSW) 778 3.3 -25.4°
